Weather History for Adana Incirlik AFB, Turkey

Change the Weather History Date:

Saturday, February 16, 2013

  Actual Average Record
Temperature  
Mean Temperature 54 °F -  
Max Temperature 63 °F 64 °F 66 °F (2002)
Min Temperature 46 °F 46 °F 28 °F (1997)
Degree Days  
Heating Degree Days 10    
Growing Degree Days 4 (Base 50)    
Moisture  
Dew Point 47 °F    
Average Humidity 82    
Maximum Humidity 100    
Minimum Humidity 46    
Precipitation  
Precipitation 0.00 in - - ()
Sea Level Pressure  
Sea Level Pressure 29.92 in    
Wind  
Wind Speed 5 mph ()    
Max Wind Speed 9 mph    
Max Gust Speed -    
Visibility 6.2 miles    
Events      
Averages and records for this station are not official NWS values.
T = Trace of Precipitation, MM = Missing Value Source: Averaged Metar Reports

Daily Weather History Graph

Daily Weather History Graph

Search for Another Location

Airport:

Trip Planner

Search our weather history database for the weather conditions in past years. The results will help you decide how hot, cold, wet, or windy it might be!

Date:

Astronomy

Feb. 16, 2013 Rise Set
Actual Time 6:25 AM EET 5:19 PM EET
Civil Twilight 5:59 AM EET 5:45 PM EET
Nautical Twilight 5:28 AM EET 6:16 PM EET
Astronomical Twilight 4:58 AM EET 6:46 PM EET
Moon 9:35 AM EET (2/16) 11:46 PM EET (2/16)
Length of Visible Light 11h 46m
Length of Day
10h 53m
Waxing Crescent, 36% of the Moon is Illuminated
Feb 16
Waxing Crescent
Feb 17
First Quarter
Feb 25
Full
Mar 4
Last Quarter
Mar 11
New

Hourly Weather History & Observations

Time (EET) Temp. Windchill Dew Point Humidity Pressure Visibility Wind Dir Wind Speed Gust Speed Precip Events Conditions
12:20 AM 48.2 °F - 46.4 °F 93% 29.89 in 6.2 mi ENE 4.6 mph - N/A   Mostly Cloudy
12:50 AM 48.2 °F - 46.4 °F 93% 29.89 in 6.2 mi NE 8.1 mph - N/A   Mostly Cloudy
1:20 AM 48.2 °F - 46.4 °F 93% 29.89 in 6.2 mi NE 5.8 mph - N/A   Mostly Cloudy
1:50 AM 48.2 °F - 46.4 °F 93% 29.89 in 6.2 mi NE 5.8 mph - N/A   Mostly Cloudy
2:00 AM 47 °F - 46 °F 97% 29.89 in 6 mi NE 5.8 mph - -   Partly Cloudy
2:20 AM 48.2 °F - 46.4 °F 93% 29.89 in 6.2 mi NE 4.6 mph - N/A   Mostly Cloudy
2:50 AM 48.2 °F - 46.4 °F 93% 29.89 in 6.2 mi NNE 3.5 mph - N/A   Mostly Cloudy
3:20 AM 48.2 °F - 46.4 °F 93% 29.89 in 6.2 mi North 4.6 mph - N/A   Mostly Cloudy
3:50 AM 48.2 °F - 48.2 °F 100% 29.86 in 6.2 mi ENE 6.9 mph - N/A   Mostly Cloudy
4:20 AM 48.2 °F - 48.2 °F 100% 29.86 in 6.2 mi North 3.5 mph - N/A   Mostly Cloudy
4:50 AM 48.2 °F - 48.2 °F 100% 29.89 in 6.2 mi NNW 3.5 mph - N/A   Mostly Cloudy
5:20 AM 48.2 °F - 48.2 °F 100% 29.89 in 6.2 mi NNW 5.8 mph - N/A   Mostly Cloudy
5:50 AM 46.4 °F 45.2 °F 46.4 °F 100% 29.89 in 6.2 mi NNE 3.5 mph - N/A   Mostly Cloudy
6:20 AM 46.4 °F 42.4 °F 46.4 °F 100% 29.89 in 6.2 mi ENE 8.1 mph - N/A   Mostly Cloudy
6:50 AM 48.2 °F - 48.2 °F 100% 29.89 in 6.2 mi ENE 6.9 mph - N/A   Mostly Cloudy
7:20 AM 48.2 °F - 48.2 °F 100% 29.89 in 6.2 mi North 4.6 mph - N/A   Mostly Cloudy
7:50 AM 50.0 °F - 50.0 °F 100% 29.89 in 6.2 mi North 5.8 mph - N/A   Scattered Clouds
8:00 AM 50 °F - 50 °F 98% 29.91 in 6 mi North 5.8 mph - -   Scattered Clouds
8:20 AM 51.8 °F - 51.8 °F 100% 29.92 in 6.2 mi NNE 5.8 mph - N/A   Scattered Clouds
8:50 AM 53.6 °F - 50.0 °F 88% 29.92 in 6.2 mi NNE 3.5 mph - N/A   Scattered Clouds
9:20 AM 55.4 °F - 50.0 °F 82% 29.92 in 6.2 mi North 1.2 mph - N/A   Scattered Clouds
9:50 AM 57.2 °F - 48.2 °F 72% 29.92 in 6.2 mi SSE 1.2 mph - N/A   Scattered Clouds
10:20 AM 59.0 °F - 46.4 °F 63% 29.92 in 6.2 mi ENE 3.5 mph - N/A   Scattered Clouds
10:50 AM 59.0 °F - 48.2 °F 67% 29.92 in 6.2 mi NE 2.3 mph - N/A   Scattered Clouds
11:20 AM 57.2 °F - 46.4 °F 67% 29.92 in 6.2 mi NNE 2.3 mph - N/A   Scattered Clouds
11:50 AM 57.2 °F - 46.4 °F 67% 29.92 in 6.2 mi NE 4.6 mph - N/A   Scattered Clouds
12:20 PM 59.0 °F - 46.4 °F 63% 29.92 in 6.2 mi East 4.6 mph - N/A   Scattered Clouds
12:50 PM 60.8 °F - 46.4 °F 59% 29.92 in 6.2 mi SE 2.3 mph - N/A   Scattered Clouds
1:20 PM 60.8 °F - 46.4 °F 59% 29.92 in 6.2 mi SE 5.8 mph - N/A   Mostly Cloudy
1:50 PM 60.8 °F - 44.6 °F 55% 29.92 in 6.2 mi South 3.5 mph - N/A   Mostly Cloudy
2:00 PM 61 °F - 46 °F 46% 29.92 in 6 mi South 3.5 mph - -   Mostly Cloudy
2:20 PM 62.6 °F - 46.4 °F 55% 29.92 in 6.2 mi SSE 3.5 mph - N/A   Mostly Cloudy
2:50 PM 62.6 °F - 46.4 °F 55% 29.92 in 6.2 mi SE 4.6 mph - N/A   Mostly Cloudy
3:20 PM 60.8 °F - 44.6 °F 55% 29.92 in 6.2 mi WSW 4.6 mph - N/A   Mostly Cloudy
3:50 PM 60.8 °F - 46.4 °F 59% 29.92 in 6.2 mi SSW 8.1 mph - N/A   Mostly Cloudy
4:20 PM 59.0 °F - 46.4 °F 63% 29.92 in 6.2 mi SSW 8.1 mph - N/A   Mostly Cloudy
4:50 PM 59.0 °F - 46.4 °F 63% 29.92 in 6.2 mi SSW 9.2 mph - N/A   Mostly Cloudy
5:20 PM 57.2 °F - 46.4 °F 67% 29.92 in 6.2 mi SSW 6.9 mph - N/A   Mostly Cloudy
5:50 PM 55.4 °F - 44.6 °F 67% 29.95 in 6.2 mi North 9.2 mph - N/A   Mostly Cloudy
6:20 PM 53.6 °F - 46.4 °F 77% 29.95 in 6.2 mi North 6.9 mph - N/A   Mostly Cloudy
6:50 PM 51.8 °F - 46.4 °F 82% 29.95 in 6.2 mi NNE 5.8 mph - N/A   Scattered Clouds
7:20 PM 50.0 °F - 46.4 °F 87% 29.95 in 6.2 mi NNE 8.1 mph - N/A   Scattered Clouds
7:50 PM 50.0 °F - 46.4 °F 87% 29.95 in 6.2 mi ENE 8.1 mph - N/A   Scattered Clouds
8:00 PM 51 °F - 46 °F 77% 29.97 in 6 mi ENE 8.1 mph - -   Partly Cloudy
8:20 PM 48.2 °F - 44.6 °F 87% 29.95 in 6.2 mi ENE 4.6 mph - N/A   Scattered Clouds
8:50 PM 48.2 °F - 46.4 °F 93% 29.95 in 6.2 mi NE 8.1 mph - N/A   Scattered Clouds
9:20 PM 48.2 °F - 46.4 °F 93% 29.95 in 6.2 mi NE 5.8 mph - N/A   Scattered Clouds
9:50 PM 48.2 °F - 46.4 °F 93% 29.95 in 6.2 mi NE 8.1 mph - N/A   Scattered Clouds
10:20 PM 48.2 °F - 44.6 °F 87% 29.95 in 6.2 mi ENE 9.2 mph - N/A   Scattered Clouds
10:50 PM 48.2 °F - 46.4 °F 93% 29.95 in 6.2 mi NE 8.1 mph - N/A   Scattered Clouds
11:20 PM 48.2 °F - 46.4 °F 93% 29.95 in 6.2 mi North 4.6 mph - N/A   Scattered Clouds
11:50 PM 48.2 °F - 46.4 °F 93% 29.95 in 6.2 mi NNE 5.8 mph - N/A   Scattered Clouds